Regional Weather Roundup
Issued by NWS Huntsville, AL

Home | Current Version | Previous Version | Text Only | Print | Product List | Glossary On
Versions: 1 2 3 4 5 6 7 8 9 10 11 12 13 14 15 16 17 18 19 20 21 22 23 24 25 26 27 28 29 30 31 32 33 34 35 36 37 38 39 40 41 42 43 44 45 46 47 48 49 50
000
ASUS44 KHUN 262310
RWRHUN

WEATHER ROUNDUP FOR THE TENNESSEE VALLEY
NATIONAL WEATHER SERVICE HUNTSVILLE AL
500 PM CST THU FEB 26 2015

ALZ001>004-270000-
NORTHWEST ALABAMA

CITY           SKY/WX    TMP DP  RH WIND       PRES   REMARKS
SHOALS AIRPORT MOCLDY    43  29  57 W9        30.13R
$$

ALZ005>007-016-270000-
NORTH CENTRAL ALABAMA

CITY           SKY/WX    TMP DP  RH WIND       PRES   REMARKS
DECATUR AP     CLOUDY    39  30  70 MISG      30.12R
HUNTSVILLE AP  MOCLDY    40  28  62 W6        30.11R
HUN NWS/UAH      N/A     40  28  63 SW5         N/A
MERIDIANVILLE  CLOUDY    37  28  70 CALM      30.10R
REDSTONE ARSN  MOCLDY    39  29  65 W7        30.11R WCI  34
VINEMONT AP    FAIR      39  27  61 W5        30.12R
$$

ALZ008>010-270000-
NORTHEAST ALABAMA

CITY           SKY/WX    TMP DP  RH WIND       PRES   REMARKS
ALBERTVILLE    PTCLDY    37  32  81 NW7       30.09R WCI  32
FORT PAYNE     MOCLDY    37  28  70 CALM      30.08R
SCOTTSBORO AP  MOCLDY    41  27  56 N5        30.11R
SCOTTSBORO HCN   N/A     41 N/A N/A MISG        N/A
VALLEY HEAD      N/A     36 N/A N/A MISG        N/A
$$

TNZ076-096-097-270000-
SOUTHEASTERN MIDDLE TENNESSEE

CITY           SKY/WX    TMP DP  RH WIND       PRES   REMARKS
TULLAHOMA      PTCLDY    39  25  56 NW6       30.09R WCI  35
WINCHESTER     CLOUDY    39  27  60 NW6       30.09R WCI  35
$$

...SURROUNDING SITES...

CITY           SKY/WX    TMP DP  RH WIND       PRES   REMARKS
ATLANTA        CLOUDY    38  30  73 NW13G28   30.04R WCI  30
ANNISTON       CLOUDY    38  30  73 NW3       30.11R
BIRMINGHAM     PTCLDY    38  31  76 NW7       30.14R WCI  33
CHATTANOOGA    MOCLDY    40  28  62 N13       30.09R WCI  32
CORINTH        CLOUDY    41  28  60 NW12G18   30.16R
DALTON         CLOUDY    37  32  81 CALM      30.08R
GADSDEN        PTCLDY    37  27  65 N6        30.10R WCI  33
GOLDEN TRNGL   MOCLDY    37  30  75 NW9       30.17  WCI  31
HALEYVILLE       N/A     39  28  65 CALM      30.14R
JACKSON TN     CLOUDY    31  23  72 NW20      30.24R WCI  19
LEWISBURG        N/A     42  20  41 NW7       30.10R
MEMPHIS        CLOUDY    31  24  75 N13G21    30.27R WCI  21
MURFREESBORO   CLOUDY    40  24  53 N12       30.11R WCI  33
NASHVILLE      CLOUDY    36  22  56 NW10G20   30.15R WCI  28
OXFORD MS      CLOUDY    34  27  75 NW8       30.23R WCI  27
ROME           CLOUDY    40  30  67 NW3       30.07R
SAVANNAH       CLOUDY    39  25  56 NW10      30.17R WCI  32
TUPELO         CLOUDY    39  32  76 VRB6      30.18R WCI  35
TUSCALOOSA     PTCLDY    44  29  55 NW10      30.16R
$$

...GULF COAST WEATHER...

CITY           SKY/WX    TMP DP  RH WIND       PRES   REMARKS
GULFPORT       MOSUNNY   48  34  58 N13       30.09R
PASCAGOULA     PTCLDY    48  35  60 N9        30.09R
MOBILE         PTCLDY    46  34  62 N8        30.09R
GULF SHORES    PTCLDY    45  36  70 N9        30.09R
PENSACOLA      CLOUDY    44  36  73 N12       30.08R
DESTIN         CLOUDY    45  37  73 N10       30.07R
PANAMA CITY    CLOUDY    47  40  77 N10       30.04R
APPALACHICOLA  CLOUDY    52  41  66 N7        30.01R
$$



USA.gov is the U.S. government's official web portal to all federal, state and local government web resources and services.